Year,Month,Day,Hour,Minute,Value (Times are PST for temperature in C)
2015,04,18,00,00,9.40
2015,04,18,00,01,9.40
2015,04,18,00,02,9.40
2015,04,18,00,03,9.40
2015,04,18,00,04,9.30
2015,04,18,00,05,9.30
2015,04,18,00,06,9.20
2015,04,18,00,07,9.20
2015,04,18,00,08,9.20
2015,04,18,00,09,9.10
2015,04,18,00,10,9.10
2015,04,18,00,11,9.20
2015,04,18,00,12,9.20
2015,04,18,00,13,9.20
2015,04,18,00,14,9.20
2015,04,18,00,15,9.20
2015,04,18,00,16,9.20
2015,04,18,00,17,9.20
2015,04,18,00,18,9.20
2015,04,18,00,19,9.10
2015,04,18,00,20,9.10
2015,04,18,00,21,9.10
2015,04,18,00,22,9.00
2015,04,18,00,23,8.90
2015,04,18,00,24,8.90
2015,04,18,00,25,8.90
2015,04,18,00,26,8.80
2015,04,18,00,27,8.70
2015,04,18,00,28,8.70
2015,04,18,00,29,8.60
2015,04,18,00,30,8.60
2015,04,18,00,31,8.60
2015,04,18,00,32,8.60
2015,04,18,00,33,8.50
2015,04,18,00,34,8.50
2015,04,18,00,35,8.50
2015,04,18,00,36,8.40
2015,04,18,00,37,8.40
2015,04,18,00,38,8.40
2015,04,18,00,39,8.30
2015,04,18,00,40,8.30
2015,04,18,00,41,8.30
2015,04,18,00,42,8.30
2015,04,18,00,43,8.30
2015,04,18,00,44,8.30
2015,04,18,00,45,8.30
2015,04,18,00,46,8.30
2015,04,18,00,47,8.30
2015,04,18,00,48,8.30
2015,04,18,00,49,8.30
2015,04,18,00,50,8.20
2015,04,18,00,51,8.20
2015,04,18,00,52,8.10
2015,04,18,00,53,8.10
2015,04,18,00,54,8.00
2015,04,18,00,55,8.00
2015,04,18,00,56,7.90
2015,04,18,00,57,7.90
2015,04,18,00,58,7.90
2015,04,18,00,59,7.80
2015,04,18,01,00,7.80
2015,04,18,01,01,7.80
2015,04,18,01,02,7.80
2015,04,18,01,03,7.70
2015,04,18,01,04,7.70
2015,04,18,01,05,7.70
2015,04,18,01,06,7.70
2015,04,18,01,07,7.60
2015,04,18,01,08,7.60
2015,04,18,01,09,7.60
2015,04,18,01,10,7.60
2015,04,18,01,11,7.60
2015,04,18,01,12,7.60
2015,04,18,01,13,7.60
2015,04,18,01,14,7.60
2015,04,18,01,15,7.60
2015,04,18,01,16,7.60
2015,04,18,01,17,7.50
2015,04,18,01,18,7.50
2015,04,18,01,19,7.40
2015,04,18,01,20,7.40
2015,04,18,01,21,7.40
2015,04,18,01,22,7.30
2015,04,18,01,23,7.30
2015,04,18,01,24,7.30
2015,04,18,01,25,7.30
2015,04,18,01,26,7.30
2015,04,18,01,27,7.30
2015,04,18,01,28,7.30
2015,04,18,01,29,7.30
2015,04,18,01,30,7.20
2015,04,18,01,31,7.20
2015,04,18,01,32,7.20
2015,04,18,01,33,7.20
2015,04,18,01,34,7.20
2015,04,18,01,35,7.20
2015,04,18,01,36,7.10
2015,04,18,01,37,7.10
2015,04,18,01,38,7.00
2015,04,18,01,39,7.00
2015,04,18,01,40,7.00
2015,04,18,01,41,6.90
2015,04,18,01,42,6.90
2015,04,18,01,43,6.80
2015,04,18,01,44,6.80
2015,04,18,01,45,6.80
2015,04,18,01,46,6.80
2015,04,18,01,47,6.80
2015,04,18,01,48,6.70
2015,04,18,01,49,6.70
2015,04,18,01,50,6.70
2015,04,18,01,51,6.60
2015,04,18,01,52,6.60
2015,04,18,01,53,6.60
2015,04,18,01,54,6.60
2015,04,18,01,55,6.50
2015,04,18,01,56,6.50
2015,04,18,01,57,6.40
2015,04,18,01,58,6.40
2015,04,18,01,59,6.40
2015,04,18,02,00,6.40
2015,04,18,02,01,6.30
2015,04,18,02,02,6.30
2015,04,18,02,03,6.30
2015,04,18,02,04,6.30
2015,04,18,02,05,6.20
2015,04,18,02,06,6.20
2015,04,18,02,07,6.20
2015,04,18,02,08,6.20
2015,04,18,02,09,6.10
2015,04,18,02,10,6.10
2015,04,18,02,11,6.10
2015,04,18,02,12,6.10
2015,04,18,02,13,6.10
2015,04,18,02,14,6.00
2015,04,18,02,15,6.00
2015,04,18,02,16,6.00
2015,04,18,02,17,6.00
2015,04,18,02,18,6.00
2015,04,18,02,19,6.00
2015,04,18,02,20,6.10
2015,04,18,02,21,6.10
2015,04,18,02,22,6.10
2015,04,18,02,23,6.10
2015,04,18,02,24,6.10
2015,04,18,02,25,6.10
2015,04,18,02,26,6.20
2015,04,18,02,27,6.20
2015,04,18,02,28,6.20
2015,04,18,02,29,6.20
2015,04,18,02,30,6.30
2015,04,18,02,31,6.30
2015,04,18,02,32,6.30
2015,04,18,02,33,6.30
2015,04,18,02,34,6.40
2015,04,18,02,35,6.50
2015,04,18,02,36,6.60
2015,04,18,02,37,6.60
2015,04,18,02,38,6.70
2015,04,18,02,39,6.80
2015,04,18,02,40,6.80
2015,04,18,02,41,6.90
2015,04,18,02,42,6.90
2015,04,18,02,43,6.90
2015,04,18,02,44,7.00
2015,04,18,02,45,7.10
2015,04,18,02,46,7.20
2015,04,18,02,47,7.30
2015,04,18,02,48,7.40
2015,04,18,02,49,7.50
2015,04,18,02,50,7.50
2015,04,18,02,51,7.60
2015,04,18,02,52,7.50
2015,04,18,02,53,7.50
2015,04,18,02,54,7.40
2015,04,18,02,55,7.30
2015,04,18,02,56,7.20
2015,04,18,02,57,7.10
2015,04,18,02,58,7.00
2015,04,18,02,59,6.90
2015,04,18,03,00,6.80
2015,04,18,03,01,6.80
2015,04,18,03,02,6.70
2015,04,18,03,03,6.70
2015,04,18,03,04,6.70
2015,04,18,03,05,6.70
2015,04,18,03,06,6.70
2015,04,18,03,07,6.70
2015,04,18,03,08,6.70
2015,04,18,03,09,6.70
2015,04,18,03,10,6.70
2015,04,18,03,11,6.70
2015,04,18,03,12,6.70
2015,04,18,03,13,6.70
2015,04,18,03,14,6.70
2015,04,18,03,15,6.70
2015,04,18,03,16,6.70
2015,04,18,03,17,6.70
2015,04,18,03,18,6.70
2015,04,18,03,19,6.70
2015,04,18,03,20,6.70
2015,04,18,03,21,6.70
2015,04,18,03,22,6.70
2015,04,18,03,23,6.70
2015,04,18,03,24,6.70
2015,04,18,03,25,6.70
2015,04,18,03,26,6.70
2015,04,18,03,27,6.70
2015,04,18,03,28,6.70
2015,04,18,03,29,6.70
2015,04,18,03,30,6.70
2015,04,18,03,31,6.70
2015,04,18,03,32,6.70
2015,04,18,03,33,6.80
2015,04,18,03,34,6.80
2015,04,18,03,35,6.80
2015,04,18,03,36,6.90
2015,04,18,03,37,6.90
2015,04,18,03,38,6.90
2015,04,18,03,39,7.00
2015,04,18,03,40,7.00
2015,04,18,03,41,7.10
2015,04,18,03,42,7.10
2015,04,18,03,43,7.10
2015,04,18,03,44,7.20
2015,04,18,03,45,7.20
2015,04,18,03,46,7.20
2015,04,18,03,47,7.30
2015,04,18,03,48,7.30
2015,04,18,03,49,7.30
2015,04,18,03,50,7.40
2015,04,18,03,51,7.40
2015,04,18,03,52,7.40
2015,04,18,03,53,7.40
2015,04,18,03,54,7.40
2015,04,18,03,55,7.40
2015,04,18,03,56,7.30
2015,04,18,03,57,7.30
2015,04,18,03,58,7.30
2015,04,18,03,59,7.30
2015,04,18,04,00,7.30
2015,04,18,04,01,7.30
2015,04,18,04,02,7.20
2015,04,18,04,03,7.20
2015,04,18,04,04,7.20
2015,04,18,04,05,7.20
2015,04,18,04,06,7.10
2015,04,18,04,07,7.00
2015,04,18,04,08,7.00
2015,04,18,04,09,6.90
2015,04,18,04,10,6.80
2015,04,18,04,11,6.70
2015,04,18,04,12,6.70
2015,04,18,04,13,6.60
2015,04,18,04,14,6.50
2015,04,18,04,15,6.40
2015,04,18,04,16,6.40
2015,04,18,04,17,6.30
2015,04,18,04,18,6.30
2015,04,18,04,19,6.20
2015,04,18,04,20,6.20
2015,04,18,04,21,6.10
2015,04,18,04,22,6.00
2015,04,18,04,23,5.90
2015,04,18,04,24,5.80
2015,04,18,04,25,5.80
2015,04,18,04,26,5.70
2015,04,18,04,27,5.60
2015,04,18,04,28,5.60
2015,04,18,04,29,5.50
2015,04,18,04,30,5.40
2015,04,18,04,31,5.40
2015,04,18,04,32,5.30
2015,04,18,04,33,5.30
2015,04,18,04,34,5.30
2015,04,18,04,35,5.30
2015,04,18,04,36,5.30
2015,04,18,04,37,5.30
2015,04,18,04,38,5.40
2015,04,18,04,39,5.40
2015,04,18,04,40,5.50
2015,04,18,04,41,5.50
2015,04,18,04,42,5.60
2015,04,18,04,43,5.60
2015,04,18,04,44,5.60
2015,04,18,04,45,5.60
2015,04,18,04,46,5.60
2015,04,18,04,47,5.60
2015,04,18,04,48,5.70
2015,04,18,04,49,5.70
2015,04,18,04,50,5.70
2015,04,18,04,51,5.70
2015,04,18,04,52,5.70
2015,04,18,04,53,5.70
2015,04,18,04,54,5.60
2015,04,18,04,55,5.60
2015,04,18,04,56,5.60
2015,04,18,04,57,5.60
2015,04,18,04,58,5.60
2015,04,18,04,59,5.50
2015,04,18,05,00,5.50
2015,04,18,05,01,5.50
2015,04,18,05,02,5.50
2015,04,18,05,03,5.40
2015,04,18,05,04,5.40
2015,04,18,05,05,5.40
2015,04,18,05,06,5.40
2015,04,18,05,07,5.40
2015,04,18,05,08,5.40
2015,04,18,05,09,5.40
2015,04,18,05,10,5.40
2015,04,18,05,11,5.40
2015,04,18,05,12,5.50
2015,04,18,05,13,5.50
2015,04,18,05,14,5.50
2015,04,18,05,15,5.50
2015,04,18,05,16,5.50
2015,04,18,05,17,5.50
2015,04,18,05,18,5.50
2015,04,18,05,19,5.40
2015,04,18,05,20,5.40
2015,04,18,05,21,5.30
2015,04,18,05,22,5.30
2015,04,18,05,23,5.30
2015,04,18,05,24,5.20
2015,04,18,05,25,5.20
2015,04,18,05,26,5.20
2015,04,18,05,27,5.10
2015,04,18,05,28,5.10
2015,04,18,05,29,5.10
2015,04,18,05,30,5.10
2015,04,18,05,31,5.10
2015,04,18,05,32,5.10
2015,04,18,05,33,5.10
2015,04,18,05,34,5.10
2015,04,18,05,35,5.10
2015,04,18,05,36,5.10
2015,04,18,05,37,5.00
2015,04,18,05,38,5.00
2015,04,18,05,39,5.00
2015,04,18,05,40,4.90
2015,04,18,05,41,4.90
2015,04,18,05,42,4.90
2015,04,18,05,43,4.90
2015,04,18,05,44,4.90
2015,04,18,05,45,5.00
2015,04,18,05,46,5.00
2015,04,18,05,47,5.00
2015,04,18,05,48,5.00
2015,04,18,05,49,5.10
2015,04,18,05,50,5.10
2015,04,18,05,51,5.10
2015,04,18,05,52,5.10
2015,04,18,05,53,5.10
2015,04,18,05,54,5.10
2015,04,18,05,55,5.10
2015,04,18,05,56,5.10
2015,04,18,05,57,5.10
2015,04,18,05,58,5.20
2015,04,18,05,59,5.20
2015,04,18,06,00,5.30
2015,04,18,06,01,5.30
2015,04,18,06,02,5.30
2015,04,18,06,03,5.30
2015,04,18,06,04,5.30
2015,04,18,06,05,5.20
2015,04,18,06,06,5.20
2015,04,18,06,07,5.20
2015,04,18,06,08,5.20
2015,04,18,06,09,5.30
2015,04,18,06,10,5.30
2015,04,18,06,11,5.40
2015,04,18,06,12,5.40
2015,04,18,06,13,5.40
2015,04,18,06,14,5.40
2015,04,18,06,15,5.30
2015,04,18,06,16,5.20
2015,04,18,06,17,5.10
2015,04,18,06,18,5.00
2015,04,18,06,19,4.90
2015,04,18,06,20,4.80
2015,04,18,06,21,4.70
2015,04,18,06,22,4.60
2015,04,18,06,23,4.60
2015,04,18,06,24,4.50
2015,04,18,06,25,4.40
2015,04,18,06,26,4.30
2015,04,18,06,27,4.20
2015,04,18,06,28,4.20
2015,04,18,06,29,4.20
2015,04,18,06,30,4.20
2015,04,18,06,31,4.20
2015,04,18,06,32,4.20
2015,04,18,06,33,4.20
2015,04,18,06,34,4.30
2015,04,18,06,35,4.30
2015,04,18,06,36,4.30
2015,04,18,06,37,4.30
2015,04,18,06,38,4.30
2015,04,18,06,39,4.30
2015,04,18,06,40,4.30
2015,04,18,06,41,4.30
2015,04,18,06,42,4.20
2015,04,18,06,43,4.20
2015,04,18,06,44,4.20
2015,04,18,06,45,4.10
2015,04,18,06,46,4.10
2015,04,18,06,47,4.10
2015,04,18,06,48,4.10
2015,04,18,06,49,4.00
2015,04,18,06,50,4.00
2015,04,18,06,51,4.00
2015,04,18,06,52,3.90
2015,04,18,06,53,3.90
2015,04,18,06,54,3.90
2015,04,18,06,55,3.90
2015,04,18,06,56,3.90
2015,04,18,06,57,3.90
2015,04,18,06,58,3.90
2015,04,18,06,59,3.90
2015,04,18,07,00,3.90
2015,04,18,07,01,3.90
2015,04,18,07,02,3.80
2015,04,18,07,03,3.80
2015,04,18,07,04,3.80
2015,04,18,07,05,3.80
2015,04,18,07,06,3.80
2015,04,18,07,07,3.70
2015,04,18,07,08,3.70
2015,04,18,07,09,3.70
2015,04,18,07,10,3.70
2015,04,18,07,11,3.70
2015,04,18,07,12,3.70
2015,04,18,07,13,3.70
2015,04,18,07,14,3.70
2015,04,18,07,15,3.70
2015,04,18,07,16,3.80
2015,04,18,07,17,3.80
2015,04,18,07,18,3.80
2015,04,18,07,19,3.90
2015,04,18,07,20,3.90
2015,04,18,07,21,4.00
2015,04,18,07,22,4.00
2015,04,18,07,23,4.00
2015,04,18,07,24,4.10
2015,04,18,07,25,4.10
2015,04,18,07,26,4.10
2015,04,18,07,27,4.20
2015,04,18,07,28,4.20
2015,04,18,07,29,4.30
2015,04,18,07,30,4.30
2015,04,18,07,31,4.30
2015,04,18,07,32,4.30
2015,04,18,07,33,4.40
2015,04,18,07,34,4.40
2015,04,18,07,35,4.50
2015,04,18,07,36,4.60
2015,04,18,07,37,4.70
2015,04,18,07,38,4.80
2015,04,18,07,39,4.80
2015,04,18,07,40,4.90
2015,04,18,07,41,5.00
2015,04,18,07,42,5.00
2015,04,18,07,43,5.10
2015,04,18,07,44,5.20
2015,04,18,07,45,5.20
2015,04,18,07,46,5.30
2015,04,18,07,47,5.30
2015,04,18,07,48,5.40
2015,04,18,07,49,5.40
2015,04,18,07,50,5.50
2015,04,18,07,51,5.50
2015,04,18,07,52,5.60
2015,04,18,07,53,5.60
2015,04,18,07,54,5.60
2015,04,18,07,55,5.60
2015,04,18,07,56,5.60
2015,04,18,07,57,5.60
2015,04,18,07,58,5.60
2015,04,18,07,59,5.60
2015,04,18,08,00,5.70
2015,04,18,08,01,5.70
2015,04,18,08,02,5.70
2015,04,18,08,03,5.70
2015,04,18,08,04,5.70
2015,04,18,08,05,5.70
2015,04,18,08,06,5.80
2015,04,18,08,07,5.80
2015,04,18,08,08,5.80
2015,04,18,08,09,5.90
2015,04,18,08,10,5.90
2015,04,18,08,11,5.90
2015,04,18,08,12,6.00
2015,04,18,08,13,6.00
2015,04,18,08,14,6.10
2015,04,18,08,15,6.10
2015,04,18,08,16,6.20
2015,04,18,08,17,6.20
2015,04,18,08,18,6.30
2015,04,18,08,19,6.40
2015,04,18,08,20,6.40
2015,04,18,08,21,6.50
2015,04,18,08,22,6.60
2015,04,18,08,23,6.60
2015,04,18,08,24,6.70
2015,04,18,08,25,6.80
2015,04,18,08,26,6.90
2015,04,18,08,27,7.00
2015,04,18,08,28,7.10
2015,04,18,08,29,7.20
2015,04,18,08,30,7.30
2015,04,18,08,31,7.40
2015,04,18,08,32,7.50
2015,04,18,08,33,7.60
2015,04,18,08,34,7.70
2015,04,18,08,35,7.90
2015,04,18,08,36,8.00
2015,04,18,08,37,8.20
2015,04,18,08,38,8.30
2015,04,18,08,39,8.50
2015,04,18,08,40,8.70
2015,04,18,08,41,8.80
2015,04,18,08,42,9.00
2015,04,18,08,43,9.10
2015,04,18,08,44,9.20
2015,04,18,08,45,9.30
2015,04,18,08,46,9.30
2015,04,18,08,47,9.40
2015,04,18,08,48,9.50
2015,04,18,08,49,9.60
2015,04,18,08,50,9.70
2015,04,18,08,51,9.80
2015,04,18,08,52,9.90
2015,04,18,08,53,10.00
2015,04,18,08,54,10.10
2015,04,18,08,55,10.10
2015,04,18,08,56,10.20
2015,04,18,08,57,10.30
2015,04,18,08,58,10.30
2015,04,18,08,59,10.30
2015,04,18,09,00,10.40
2015,04,18,09,01,10.40
2015,04,18,09,02,10.50
2015,04,18,09,03,10.50
2015,04,18,09,04,10.60
2015,04,18,09,05,10.60
2015,04,18,09,06,10.60
2015,04,18,09,07,10.70
2015,04,18,09,08,10.80
2015,04,18,09,09,10.80
2015,04,18,09,10,10.80
2015,04,18,09,11,10.90
2015,04,18,09,12,10.90
2015,04,18,09,13,11.00
2015,04,18,09,14,11.10
2015,04,18,09,15,11.10
2015,04,18,09,16,11.20
2015,04,18,09,17,11.20
2015,04,18,09,18,11.30
2015,04,18,09,19,11.30
2015,04,18,09,20,11.30
2015,04,18,09,21,11.40
2015,04,18,09,22,11.40
2015,04,18,09,23,11.50
2015,04,18,09,24,11.50
2015,04,18,09,25,11.60
2015,04,18,09,26,11.70
2015,04,18,09,27,11.70
2015,04,18,09,28,11.80
2015,04,18,09,29,11.80
2015,04,18,09,30,11.90
2015,04,18,09,31,11.90
2015,04,18,09,32,12.00
2015,04,18,09,33,12.00
2015,04,18,09,34,12.10
2015,04,18,09,35,12.10
2015,04,18,09,36,12.10
2015,04,18,09,37,12.10
2015,04,18,09,38,12.10
2015,04,18,09,39,12.10
2015,04,18,09,40,12.10
2015,04,18,09,41,12.10
2015,04,18,09,42,12.20
2015,04,18,09,43,12.30
2015,04,18,09,44,12.30
2015,04,18,09,45,12.40
2015,04,18,09,46,12.40
2015,04,18,09,47,12.30
2015,04,18,09,48,12.20
2015,04,18,09,49,12.10
2015,04,18,09,50,12.10
2015,04,18,09,51,12.10
2015,04,18,09,52,12.10
2015,04,18,09,53,12.10
2015,04,18,09,54,12.10
2015,04,18,09,55,12.20
2015,04,18,09,56,12.20
2015,04,18,09,57,12.20
2015,04,18,09,58,12.20
2015,04,18,09,59,12.20
2015,04,18,10,00,12.20
2015,04,18,10,01,12.20
2015,04,18,10,02,12.20
2015,04,18,10,03,12.30
2015,04,18,10,04,12.30
2015,04,18,10,05,12.30
2015,04,18,10,06,12.40
2015,04,18,10,07,12.40
2015,04,18,10,08,12.40
2015,04,18,10,09,12.40
2015,04,18,10,10,12.40
2015,04,18,10,11,12.50
2015,04,18,10,12,12.50
2015,04,18,10,13,12.60
2015,04,18,10,14,12.60
2015,04,18,10,15,12.70
2015,04,18,10,16,12.70
2015,04,18,10,17,12.70
2015,04,18,10,18,12.70
2015,04,18,10,19,12.70
2015,04,18,10,20,12.80
2015,04,18,10,21,12.80
2015,04,18,10,22,12.80
2015,04,18,10,23,12.80
2015,04,18,10,24,12.80
2015,04,18,10,25,12.80
2015,04,18,10,26,12.80
2015,04,18,10,27,12.60
2015,04,18,10,28,12.60
2015,04,18,10,29,12.50
2015,04,18,10,30,12.50
2015,04,18,10,31,12.40
2015,04,18,10,32,12.40
2015,04,18,10,33,12.50
2015,04,18,10,34,12.50
2015,04,18,10,35,12.60
2015,04,18,10,36,12.60
2015,04,18,10,37,12.60
2015,04,18,10,38,12.60
2015,04,18,10,39,12.60
2015,04,18,10,40,12.60
2015,04,18,10,41,12.50
2015,04,18,10,42,12.50
2015,04,18,10,43,12.40
2015,04,18,10,44,12.40
2015,04,18,10,45,12.40
2015,04,18,10,46,12.40
2015,04,18,10,47,12.40
2015,04,18,10,48,12.40
2015,04,18,10,49,12.30
2015,04,18,10,50,12.30
2015,04,18,10,51,12.30
2015,04,18,10,52,12.30
2015,04,18,10,53,12.30
2015,04,18,10,54,12.30
2015,04,18,10,55,12.40
2015,04,18,10,56,12.50
2015,04,18,10,57,12.50
2015,04,18,10,58,12.50
2015,04,18,10,59,12.50
2015,04,18,11,00,12.60
2015,04,18,11,01,12.60
2015,04,18,11,02,12.70
2015,04,18,11,03,12.70
2015,04,18,11,04,12.70
2015,04,18,11,05,12.70
2015,04,18,11,06,12.70
2015,04,18,11,07,12.70
2015,04,18,11,08,12.70
2015,04,18,11,09,12.60
2015,04,18,11,10,12.60
2015,04,18,11,11,12.50
2015,04,18,11,12,12.50
2015,04,18,11,13,12.50
2015,04,18,11,14,12.50
2015,04,18,11,15,12.50
2015,04,18,11,16,12.60
2015,04,18,11,17,12.60
2015,04,18,11,18,12.70
2015,04,18,11,19,12.70
2015,04,18,11,20,12.70
2015,04,18,11,21,12.70
2015,04,18,11,22,12.70
2015,04,18,11,23,12.70
2015,04,18,11,24,12.80
2015,04,18,11,25,12.80
2015,04,18,11,26,12.80
2015,04,18,11,27,12.80
2015,04,18,11,28,12.90
2015,04,18,11,29,12.90
2015,04,18,11,30,12.90
2015,04,18,11,31,12.90
2015,04,18,11,32,12.90
2015,04,18,11,33,12.80
2015,04,18,11,34,12.80
2015,04,18,11,35,12.70
2015,04,18,11,36,12.70
2015,04,18,11,37,12.70
2015,04,18,11,38,12.80
2015,04,18,11,39,12.80
2015,04,18,11,40,12.80
2015,04,18,11,41,12.80
2015,04,18,11,42,12.90
2015,04,18,11,43,12.90
2015,04,18,11,44,12.90
2015,04,18,11,45,12.90
2015,04,18,11,46,13.00
2015,04,18,11,47,13.00
2015,04,18,11,48,13.10
2015,04,18,11,49,13.10
2015,04,18,11,50,13.20
2015,04,18,11,51,13.20
2015,04,18,11,52,13.30
2015,04,18,11,53,13.40
2015,04,18,11,54,13.40
2015,04,18,11,55,13.40
2015,04,18,11,56,13.40
2015,04,18,11,57,13.40
2015,04,18,11,58,13.30
2015,04,18,11,59,13.30
2015,04,18,12,00,13.30
2015,04,18,12,01,13.30
2015,04,18,12,02,13.30
2015,04,18,12,03,13.30
2015,04,18,12,04,13.40
2015,04,18,12,05,13.40
2015,04,18,12,06,13.40
2015,04,18,12,07,13.30
2015,04,18,12,08,13.30
2015,04,18,12,09,13.30
2015,04,18,12,10,13.30
2015,04,18,12,11,13.30
2015,04,18,12,12,13.30
2015,04,18,12,13,13.30
2015,04,18,12,14,13.30
2015,04,18,12,15,13.30
2015,04,18,12,16,13.30
2015,04,18,12,17,13.30
2015,04,18,12,18,13.40
2015,04,18,12,19,13.40
2015,04,18,12,20,13.40
2015,04,18,12,21,13.50
2015,04,18,12,22,13.50
2015,04,18,12,23,13.60
2015,04,18,12,24,13.60
2015,04,18,12,25,13.60
2015,04,18,12,26,13.60
2015,04,18,12,27,13.50
2015,04,18,12,28,13.50
2015,04,18,12,29,13.60
2015,04,18,12,30,13.60
2015,04,18,12,31,13.70
2015,04,18,12,32,13.80
2015,04,18,12,33,13.90
2015,04,18,12,34,13.90
2015,04,18,12,35,13.90
2015,04,18,12,36,14.00
2015,04,18,12,37,14.10
2015,04,18,12,38,14.20
2015,04,18,12,39,14.20
2015,04,18,12,40,14.20
2015,04,18,12,41,14.20
2015,04,18,12,42,14.30
2015,04,18,12,43,14.30
2015,04,18,12,44,14.20
2015,04,18,12,45,14.20
2015,04,18,12,46,14.20
2015,04,18,12,47,14.20
2015,04,18,12,48,14.20
2015,04,18,12,49,14.20
2015,04,18,12,50,14.20
2015,04,18,12,51,14.20
2015,04,18,12,52,14.20
2015,04,18,12,53,14.30
2015,04,18,12,54,14.30
2015,04,18,12,55,14.30
2015,04,18,12,56,14.30
2015,04,18,12,57,14.40
2015,04,18,12,58,14.40
2015,04,18,12,59,14.40
2015,04,18,13,00,14.50
2015,04,18,13,01,14.50
2015,04,18,13,02,14.40
2015,04,18,13,03,14.30
2015,04,18,13,04,14.30
2015,04,18,13,05,14.20
2015,04,18,13,06,14.20
2015,04,18,13,07,14.30
2015,04,18,13,08,14.30
2015,04,18,13,09,14.40
2015,04,18,13,10,14.40
2015,04,18,13,11,14.50
2015,04,18,13,12,14.50
2015,04,18,13,13,14.60
2015,04,18,13,14,14.50
2015,04,18,13,15,14.50
2015,04,18,13,16,14.40
2015,04,18,13,17,14.30
2015,04,18,13,18,14.30
2015,04,18,13,19,14.30
2015,04,18,13,20,14.30
2015,04,18,13,21,14.30
2015,04,18,13,22,14.30
2015,04,18,13,23,14.30
2015,04,18,13,24,14.40
2015,04,18,13,25,14.40
2015,04,18,13,26,14.40
2015,04,18,13,27,14.40
2015,04,18,13,28,14.40
2015,04,18,13,29,14.40
2015,04,18,13,30,14.40
2015,04,18,13,31,14.40
2015,04,18,13,32,14.40
2015,04,18,13,33,14.50
2015,04,18,13,34,14.50
2015,04,18,13,35,14.60
2015,04,18,13,36,14.60
2015,04,18,13,37,14.70
2015,04,18,13,38,14.70
2015,04,18,13,39,14.70
2015,04,18,13,40,14.70
2015,04,18,13,41,14.60
2015,04,18,13,42,14.60
2015,04,18,13,43,14.50
2015,04,18,13,44,14.50
2015,04,18,13,45,14.50
2015,04,18,13,46,14.50
2015,04,18,13,47,14.60
2015,04,18,13,48,14.70
2015,04,18,13,49,14.70
2015,04,18,13,50,14.70
2015,04,18,13,51,14.70
2015,04,18,13,52,14.70
2015,04,18,13,53,14.70
2015,04,18,13,54,14.70
2015,04,18,13,55,14.80
2015,04,18,13,56,14.80
2015,04,18,13,57,14.80
2015,04,18,13,58,14.80
2015,04,18,13,59,14.90
2015,04,18,14,00,15.00
2015,04,18,14,01,15.00
2015,04,18,14,02,15.00
2015,04,18,14,03,15.00
2015,04,18,14,04,15.00
2015,04,18,14,05,15.00
2015,04,18,14,06,15.20
2015,04,18,14,07,15.20
2015,04,18,14,08,15.30
2015,04,18,14,09,15.30
2015,04,18,14,10,15.30
2015,04,18,14,11,15.20
2015,04,18,14,12,15.20
2015,04,18,14,13,15.10
2015,04,18,14,14,15.00
2015,04,18,14,15,15.00
2015,04,18,14,16,15.00
2015,04,18,14,17,15.00
2015,04,18,14,18,15.00
2015,04,18,14,19,15.00
2015,04,18,14,20,15.10
2015,04,18,14,21,15.00
2015,04,18,14,22,15.00
2015,04,18,14,23,15.00
2015,04,18,14,24,15.00
2015,04,18,14,25,15.00
2015,04,18,14,26,15.00
2015,04,18,14,27,15.00
2015,04,18,14,28,15.20
2015,04,18,14,29,15.30
2015,04,18,14,30,15.40
2015,04,18,14,31,15.40
2015,04,18,14,32,15.40
2015,04,18,14,33,15.50
2015,04,18,14,34,15.50
2015,04,18,14,35,15.50
2015,04,18,14,36,15.50
2015,04,18,14,37,15.40
2015,04,18,14,38,15.40
2015,04,18,14,39,15.30
2015,04,18,14,40,15.30
2015,04,18,14,41,15.40
2015,04,18,14,42,15.40
2015,04,18,14,43,15.40
2015,04,18,14,44,15.40
2015,04,18,14,45,15.50
2015,04,18,14,46,15.60
2015,04,18,14,47,15.60
2015,04,18,14,48,15.70
2015,04,18,14,49,15.70
2015,04,18,14,50,15.80
2015,04,18,14,51,15.80
2015,04,18,14,52,15.80
2015,04,18,14,53,15.70
2015,04,18,14,54,15.50
2015,04,18,14,55,15.50
2015,04,18,14,56,15.40
2015,04,18,14,57,15.40
2015,04,18,14,58,15.30
2015,04,18,14,59,15.20
2015,04,18,15,00,15.20
2015,04,18,15,01,15.20
2015,04,18,15,02,15.30
2015,04,18,15,03,15.30
2015,04,18,15,04,15.40
2015,04,18,15,05,15.50
2015,04,18,15,06,15.50
2015,04,18,15,07,15.50
2015,04,18,15,08,15.40
2015,04,18,15,09,15.30
2015,04,18,15,10,15.30
2015,04,18,15,11,15.30
2015,04,18,15,12,15.20
2015,04,18,15,13,15.20
2015,04,18,15,14,15.20
2015,04,18,15,15,15.30
2015,04,18,15,16,15.30
2015,04,18,15,17,15.40
2015,04,18,15,18,15.40
2015,04,18,15,19,15.40
2015,04,18,15,20,15.40
2015,04,18,15,21,15.40
2015,04,18,15,22,15.40
2015,04,18,15,23,15.40
2015,04,18,15,24,15.40
2015,04,18,15,25,15.40
2015,04,18,15,26,15.40
2015,04,18,15,27,15.40
2015,04,18,15,28,15.40
2015,04,18,15,29,15.40
2015,04,18,15,30,15.40
2015,04,18,15,31,15.40
2015,04,18,15,32,15.40
2015,04,18,15,33,15.40
2015,04,18,15,34,15.30
2015,04,18,15,35,15.30
2015,04,18,15,36,15.30
2015,04,18,15,37,15.30
2015,04,18,15,38,15.30
2015,04,18,15,39,15.30
2015,04,18,15,40,15.20
2015,04,18,15,41,15.20
2015,04,18,15,42,15.20
2015,04,18,15,43,15.30
2015,04,18,15,44,15.30
2015,04,18,15,45,15.40
2015,04,18,15,46,15.40
2015,04,18,15,47,15.40
2015,04,18,15,48,15.40
2015,04,18,15,49,15.50
2015,04,18,15,50,15.50
2015,04,18,15,51,15.50
2015,04,18,15,52,15.50
2015,04,18,15,53,15.50
2015,04,18,15,54,15.60
2015,04,18,15,55,15.60
2015,04,18,15,56,15.70
2015,04,18,15,57,15.70
2015,04,18,15,58,15.80
2015,04,18,15,59,15.80
2015,04,18,16,00,15.80
2015,04,18,16,01,15.90
2015,04,18,16,02,15.90
2015,04,18,16,03,15.90
2015,04,18,16,04,15.90
2015,04,18,16,05,15.90
2015,04,18,16,06,15.90
2015,04,18,16,07,15.90
2015,04,18,16,08,15.90
2015,04,18,16,09,15.90
2015,04,18,16,10,15.90
2015,04,18,16,11,16.00
2015,04,18,16,12,16.00
2015,04,18,16,13,16.10
2015,04,18,16,14,16.10
2015,04,18,16,15,16.20
2015,04,18,16,16,16.20
2015,04,18,16,17,16.20
2015,04,18,16,18,16.20
2015,04,18,16,19,16.20
2015,04,18,16,20,16.20
2015,04,18,16,21,16.20
2015,04,18,16,22,16.20
2015,04,18,16,23,16.20
2015,04,18,16,24,16.20
2015,04,18,16,25,16.20
2015,04,18,16,26,16.20
2015,04,18,16,27,16.30
2015,04,18,16,28,16.30
2015,04,18,16,29,16.30
2015,04,18,16,30,16.30
2015,04,18,16,31,16.40
2015,04,18,16,32,16.60
2015,04,18,16,33,16.70
2015,04,18,16,34,16.90
2015,04,18,16,35,17.00
2015,04,18,16,36,17.10
2015,04,18,16,37,17.30
2015,04,18,16,38,17.40
2015,04,18,16,39,17.40
2015,04,18,16,40,17.50
2015,04,18,16,41,17.50
2015,04,18,16,42,17.50
2015,04,18,16,43,17.50
2015,04,18,16,44,17.50
2015,04,18,16,45,17.60
2015,04,18,16,46,17.60
2015,04,18,16,47,17.70
2015,04,18,16,48,17.60
2015,04,18,16,49,17.50
2015,04,18,16,50,17.40
2015,04,18,16,51,17.30
2015,04,18,16,52,17.30
2015,04,18,16,53,17.30
2015,04,18,16,54,17.30
2015,04,18,16,55,17.30
2015,04,18,16,56,17.30
2015,04,18,16,57,17.30
2015,04,18,16,58,17.30
2015,04,18,16,59,17.30
2015,04,18,17,00,17.30
2015,04,18,17,01,17.30
2015,04,18,17,02,17.30
2015,04,18,17,03,17.30
2015,04,18,17,04,17.40
2015,04,18,17,05,17.40
2015,04,18,17,06,17.40
2015,04,18,17,07,17.40
2015,04,18,17,08,17.50
2015,04,18,17,09,17.60
2015,04,18,17,10,17.70
2015,04,18,17,11,17.80
2015,04,18,17,12,17.90
2015,04,18,17,13,17.90
2015,04,18,17,14,17.80
2015,04,18,17,15,17.40
2015,04,18,17,16,17.10
2015,04,18,17,17,16.80
2015,04,18,17,18,16.60
2015,04,18,17,19,16.40
2015,04,18,17,20,16.20
2015,04,18,17,21,16.10
2015,04,18,17,22,15.90
2015,04,18,17,23,15.70
2015,04,18,17,24,15.60
2015,04,18,17,25,15.40
2015,04,18,17,26,15.30
2015,04,18,17,27,15.20
2015,04,18,17,28,15.20
2015,04,18,17,29,15.20
2015,04,18,17,30,15.10
2015,04,18,17,31,15.00
2015,04,18,17,32,15.00
2015,04,18,17,33,15.00
2015,04,18,17,34,15.00
2015,04,18,17,35,15.00
2015,04,18,17,36,15.00
2015,04,18,17,37,15.00
2015,04,18,17,38,15.00
2015,04,18,17,39,15.00
2015,04,18,17,40,14.90
2015,04,18,17,41,14.80
2015,04,18,17,42,14.80